Regional Weather Roundup
Issued by NWS

Home | Current Version | Previous Version | Text Only | Print | Product List | Glossary On
Versions: 1 2 3 4 5 6 7 8 9 10 11 12 13 14 15 16 17 18 19 20 21 22 23 24 25 26 27 28 29 30 31 32 33 34 35 36 37 38 39 40 41 42 43 44 45 46 47 48 49 50
000
ASUS43 KTOP 010708
RWRKS

WEATHER ROUNDUP FOR KANSAS
NATIONAL WEATHER SERVICE GOODLAND KS
100 AM CST SUN FEB 01 2015

NOTE:  "FAIR" INDICATES FEW OR NO CLOUDS BELOW 12,000 FEET WITH NO
SIGNIFICANT WEATHER AND/OR OBSTRUCTIONS TO VISIBILITY.

KSZ001>006-013>018-027>032-041>047-010800-
NORTHWEST KANSAS

CITY           SKY/WX    TMP DP  RH WIND       PRES   REMARKS
GOODLAND       LGT SNOW  24  22  91 N23G30    29.91R FOG     WCI   9
HAYS           CLOUDY    34  25  69 N20G26    29.80R WCI  22
HILL CITY      LGT SNOW  29  25  85 N25G35    29.86S FOG     WCI  14
RUSSELL        LGT SNOW  32  32 100 NW20      29.77R FOG     WCI  20
$$

KSZ061>065-074>080-084>089-010800-
SOUTHWEST KANSAS

CITY           SKY/WX    TMP DP  RH WIND       PRES   REMARKS
DODGE CITY     LGT SNOW  33  31  92 NW15      29.81S FOG     WCI  23
ELKHART          N/A     38  33  82 W8          N/A
GARDEN CITY    CLOUDY    34  32  92 NW16      29.83R WCI  24
LIBERAL        CLOUDY    37  34  87 NW9       29.85S
PRATT          CLOUDY    41  39  93 W18       29.76F
$$

KSZ066>073-081>083-090>101-010800-
SOUTHEAST KANSAS

CITY           SKY/WX    TMP DP  RH WIND       PRES   REMARKS
CHANUTE        LGT RAIN  40  39  97 S9        29.82F FOG
COFFEYVILLE    LGT RAIN  41  39  93 S12       29.83F
HUTCHINSON     CLOUDY    42  39  89 SW12      29.75F FOG
MEDICINE LODGE   N/A     41  40  96 S8        29.77F
NEWTON         CLOUDY    39  34  81 SW14      29.77F WCI  31
PARSONS        LGT RAIN  41  40  96 S9        29.83F FOG
WICHITA INTL   CLOUDY    41  41 100 SW14      29.77F
WICHITA JABRA  LGT RAIN  40  32  73 SW12      29.77F WCI  33
WICHITA MCCONL CLOUDY    40  39  96 S13       29.77F WCI  33
WINFIELD       CLOUDY    40  28  62 S10       29.81F WCI  33
$$

KSZ007>012-019>026-033>040-048>060-102>105-010800-
NORTHEAST KANSAS

CITY           SKY/WX    TMP DP  RH WIND       PRES   REMARKS
CONCORDIA      LGT RAIN  34  34 100 NE5       29.76F VSB 3/4
EMPORIA        LGT RAIN  38  38 100 S13       29.77F WCI  30
LAWRENCE       LGT SNOW  32  32 100 SE7       29.82F FOG
MANHATTAN      LGT RAIN  35  34  96 NE5       29.77F FOG
MARYSVILLE     LGT SNOW  32  32 100 CALM      29.78F
OLATHE IND     LGT RAIN  34  34 100 S8        29.83F FOG
OLATHE EXE     LGT SNOW  34  34 100 S7        29.82F FOG
SALINA         CLOUDY    41  39  93 SW6       29.74F
TOPEKA BILLARD LGT RAIN  33  32  96 E5        29.81F FOG
TOPEKA FORBES  LGT RAIN  36  34  92 SE6       29.79F FOG
$$



USA.gov is the U.S. government's official web portal to all federal, state and local government web resources and services.